Regional Weather Roundup
Issued by NWS

Home | Current Version | Previous Version | Text Only | Print | Product List | Glossary On
Versions: 1 2 3 4 5 6 7 8 9 10 11 12 13 14 15 16 17 18 19 20 21 22 23 24 25 26 27 28 29 30 31 32 33 34 35 36 37 38 39 40 41 42 43 44 45 46 47 48 49 50
000
ASUS44 KFWD 271015
RWRTX
NORTH TEXAS HOURLY WEATHER ROUNDUP
NATIONAL WEATHER SERVICE FORT WORTH TX
500 AM CDT SAT MAY 27 2017

NOTE: "FAIR" INDICATES FEW OR NO CLOUDS BELOW 12,000 FEET WITH NO
SIGNIFICANT WEATHER AND/OR OBSTRUCTIONS TO VISIBILITY.

TXZ118-119-271100-
DALLAS/FORT WORTH METROPLEX

CITY           SKY/WX    TMP DP  RH WIND       PRES   REMARKS
DFW AIRPORT    CLOUDY    80  75  84 S14       29.79S
DALLAS LOVE    MOCLDY    80  74  81 S14       29.81S
FTW MEACHAM    CLOUDY    80  75  84 S14       29.80R
DAL-EXECUTIVE  CLOUDY    79  75  87 S7        29.81S
FTW-ALLIANCE   CLOUDY    79  74  84 S8G17     29.79S
FTW-NAS-JRB    CLOUDY    79  74  84 S9        29.80S
FTW-SPINKS     PTCLDY    78  73  86 S10G16    29.82S
ARLINGTON      CLOUDY    79  74  84 S12       29.81S
GRAND PRAIRIE  PTCLDY    79  72  80 SE12G17   29.82S
ADDISON        CLOUDY    79  73  83 S8        29.84S
MESQUITE       CLOUDY    78  74  87 S13       29.83S
LANCASTER      CLOUDY    78  73  85 S7        29.84R
$$

TXZ091>094-102>105-117-120-121-131>134-271100-
NORTH CENTRAL TEXAS

CITY           SKY/WX    TMP DP  RH WIND       PRES   REMARKS
SHRMAN/DENISON MOCLDY    76  73  90 CALM      29.82S
GAINESVILLE    MOCLDY    75  73  91 S13       29.80F
BOWIE          CLEAR     75  74  97 SE8       29.78R
BRIDGEPORT     CLEAR     75  71  86 S6        29.80R
DECATUR        CLEAR     75  73  91 S10       29.80S FOG
DENTON         CLOUDY    77  75  93 S10       29.80R
MCKINNEY       CLOUDY    79  75  87 S13       29.82R
BONHAM         CLOUDY    77  73  88 S13       29.83S
GREENVILLE     CLOUDY    81  73  78 S9        29.84S
ROCKWALL       CLOUDY    78  75  89 S12G24    29.83S
TERRELL        CLOUDY    78  73  84 S8        29.84R
WAXAHACHIE     CLOUDY    77  75  92 S8        29.84S
CLEBURNE       CLOUDY    77  77 100 S9        29.83S FOG
GRANBURY       CLOUDY    79  73  82 SE7       29.82R
$$

TXZ083>090-098>101-113>116-127>130-139>142-154-155-271100-
WESTERN NORTH TEXAS

CITY           SKY/WX    TMP DP  RH WIND       PRES   REMARKS
WICHITA FALLS  CLEAR     70  68  93 S8        29.74R
WF-KICKAPOO    CLEAR     72  70  93 S3        29.76S
VERNON         CLEAR     70  65  84 S6        29.74S
ABILENE        CLEAR     77  70  79 S16       29.82S
ABILENE-DYESS  CLEAR     76  70  81 S14       29.80S
GRAHAM         CLEAR     77  71  82 S6        29.76S
BRECKENRIDGE   CLEAR     78  70  74 S14       29.79S HAZE
CISCO          CLEAR     75  72  88 S10       29.83S
EASTLAND       CLEAR     74  71  88 S8        29.82S
RANGER         CLEAR     73  70  89 S10G16    29.83S
MINERAL WELLS  CLEAR     74  71  91 SE6       29.79R
STEPHENVILLE   MOCLDY    75  72  90 S5        29.86R
COMANCHE       CLOUDY    76  76 100 S10       29.84S
BROWNWOOD      CLOUDY    75  72  88 SE6       29.85S
COLEMAN        PTCLDY    73  68  84 S7        29.86S
$$

TXZ143>147-156>162-174-175-271100-
CENTRAL TEXAS

CITY           SKY/WX    TMP DP  RH WIND       PRES   REMARKS
WACO           CLOUDY    79  75  87 S13       29.84R
WACO-MCGREGOR  CLOUDY    78  75  90 S13G18    29.85R
HILLSBORO      CLOUDY    78  75  90 S13       29.84S
CORSICANA      CLOUDY    80  75  84 S10       29.85F
MEXIA          CLOUDY    76  75  95 S13G23    29.85S FOG
HEARNE         CLOUDY    78  76  94 S12G17    29.87S
CAMERON        CLOUDY    79  75  87 SW9G16    29.86S
TEMPLE         CLOUDY    76  76 100 S15       29.85F FOG
KILLEEN        CLOUDY    75  75 100 S9        29.85R FOG
KILLEEN-SKYLRK CLOUDY    77  75  93 S10       29.85F
FORT HOOD      CLOUDY    75  74  96 S10       29.82S
HAMILTON       CLOUDY    78  76  93 S13       29.86S
LAMPASAS       CLOUDY    78  76  92 S7        29.85S
$$

TXZ095>097-106>112-122>126-135>138-148>153-164>167-271100-
EAST TEXAS

CITY           SKY/WX    TMP DP  RH WIND       PRES   REMARKS
PARIS          CLOUDY    75  72  88 S7        29.85S
SULPHUR SPRNGS CLOUDY    78  73  85 S9        29.86R
MOUNT PLEASANT PTCLDY    76  73  88 S5        29.87R
GILMER         CLOUDY    75  73  91 S6        29.86R
MINEOLA        CLOUDY    79  73  83 S7        29.85R
TYLER          CLOUDY    78  75  90 S10       29.86R
LONGVIEW       PTCLDY    77  74  90 S8        29.85S
MARSHALL       PTCLDY    73  70  91 S6        29.90R
ATHENS         CLOUDY    77  75  94 S7        29.84S
PALESTINE      CLOUDY    77  75  93 S6        29.88S
JACKSONVILLE   CLOUDY    76  74  95 S6        29.90S
HENDERSON      CLOUDY    76  74  93 S6        29.88S
CENTER         CLOUDY    80  78  94 S6        29.91R
NACOGDOCHES    CLOUDY    77  72  83 S6        29.88R
LUFKIN         CLOUDY    77  74  90 S7        29.89R
$$

SUPPLEMENTAL OBSERVATIONS (NWS FORT WORTH AREA)

CITY           SKY/WX    TMP DP  RH WIND       PRES   REMARKS
DENISON DAM      N/A     77  73  88 SE3         N/A
CADDO GRASSLND   N/A     79  73  83 S12         N/A
PAT MAYSE LAKE   N/A     77  75  94 SE9         N/A
GREENVILLE       N/A     79  73  83 S7G15       N/A
CEDAR HILL       N/A     79  73  83 S9          N/A
LBJ GRASSLAND    N/A     75  70  83 SE8         N/A
POSSUM KINGDOM   N/A     77  72  83 S6G16       N/A
GRANBURY         N/A     79  73  83 S9          N/A
COMANCHE         N/A     77  72  83 S12         N/A
MCGREGOR         N/A     77  73  88 S9G17       N/A
TEMPLE           N/A     75  73  94 S10         N/A
LAKE LIMESTONE   N/A     77  73  88 S10         N/A
ATHENS           N/A     77  72  83 S8          N/A
$$

SUPPLEMENTAL OBSERVATIONS (NWS NORMAN AREA)

CITY           SKY/WX    TMP DP  RH WIND       PRES   REMARKS
GOODLETT         N/A     64  58  81 S10       29.74R
ODELL            N/A     72  69  92 S12       29.74F
CROWELL          N/A     70  66  87 SW9       29.75S
KNOX CITY        N/A     73  61  64 S9        29.78R
SEYMOUR          N/A     76  68  75 S10G18    29.76S
MILLERS CREEK    N/A     75  68  78 SW12        N/A
$$

SUPPLEMENTAL OBSERVATIONS (NWS SAN ANGELO AREA)

CITY           SKY/WX    TMP DP  RH WIND       PRES   REMARKS
WEINERT          N/A     74  64  70 S8        29.78S
HASKELL          N/A     74  63  69 S9        29.79R
THROCKMORTON     N/A     75  70  84 S8        29.78S
STAMFORD         N/A     76  69  80 S8        29.80R
CLYDE            N/A     72  69  90 S12       29.85F
HAMBY            N/A     77  70  78 S14         N/A
IVIE RESERVOIR   N/A     75  70  83 SE3G12      N/A
COLORADO BEND    N/A     77  73  88 SW8G17      N/A
$$

SUPPLEMENTAL OBSERVATIONS (NWS SHREVEPORT AREA)

CITY           SKY/WX    TMP DP  RH WIND       PRES   REMARKS
TEXARKANA        N/A     75  72  88 SE2         N/A
LINDEN           N/A     73  70  88 SE1         N/A
CADDO LAKE       N/A     73  70  88 SE1         N/A
LUFKIN           N/A     77  73  88 MISG        N/A
N SABINE NF      N/A     75  72  88 MISG        N/A
$$

SUPPLEMENTAL OBSERVATIONS ARE A COLLECTION OF AUTOMATED INSTRUMENTS
THAT ARE MAINTAINED BY A VARIETY OF FEDERAL AND STATE AGENCIES.
CERTAIN ELEMENTS...SUCH AS HUMIDITY VALUES AND SUSTAINED WIND
SPEEDS...MAY BE APPROXIMATED.





USA.gov is the U.S. government's official web portal to all federal, state and local government web resources and services.